Tracking 17264 objects as of 29-August-2015
HD Live streaming from Space Station

EDUSAT

Track EDUSAT now!
10-day predictions
EDUSAT is classified as:


NORAD ID: 37788
Int'l Code: 2011-044A
Perigee: 640.1 km
Apogee: 694.8 km
Inclination: 98.2 °
Period: 97.9 minutes
Semi major axis: 7038 km
RCS: 0.1421 m2 (medium)
Launch date: August 17, 2011
Source: Italy (IT)

EduSat is a microsatellite built by the University of Rome.
Your satellite tracking list
Your tracking list is empty





NASA's NSSDC Master Catalog

Two Line Element Set (TLE):
1 37788U 11044A   15241.09895571  .00000341  00000-0  64618-4 0  9997
2 37788 098.2081 343.3233 0038835 014.8797 061.1001 14.70235912216177

Source of the keplerian elements: AFSPC

N2YO: 278